Washington, PA

5:49 AM EST on February 27, 2017 (GMT -0500)
Washington County

Weather History for KAFJ - March, 2013

Change the Weather History Date:

Friday, March 1, 2013

  Actual Average Record
Temperature  
Mean Temperature 29 °F -  
Max Temperature 32 °F 41 °F 66 °F (2004)
Min Temperature 26 °F 24 °F 12 °F (2014)
Degree Days  
Heating Degree Days 36    
Moisture  
Dew Point 23 °F    
Average Humidity 78    
Maximum Humidity 86    
Minimum Humidity 69    
Precipitation  
Precipitation 0.00 in - - ()
Sea Level Pressure  
Sea Level Pressure 29.92 in    
Wind  
Wind Speed 7 mph (NW)    
Max Wind Speed 13 mph    
Max Gust Speed 16 mph    
Visibility 10 miles    
Events      
Averages and records for this station are not official NWS values.
T = Trace of Precipitation, MM = Missing Value Source: NWS Daily Summary

Daily Weather History Graph

Daily Weather History Graph

Search for Another Location

Airport or City:

Trip Planner

Search our weather history database for the weather conditions in past years. The results will help you decide how hot, cold, wet, or windy it might be!

Date:

Astronomy

Mar. 01, 2013 Rise Set
Actual Time 6:54 AM EST 6:13 PM EST
Civil Twilight 6:27 AM EST 6:40 PM EST
Nautical Twilight 5:55 AM EST 7:11 PM EST
Astronomical Twilight 5:24 AM EST 7:43 PM EST
Moon 10:45 PM EST (3/1) 8:39 AM EST (3/1)
Length of Visible Light 12h 13m
Length of Day
11h 18m
Waning Gibbous, 83% of the Moon is Illuminated
Mar 1
Waning Gibbous
Mar 4
Last Quarter
Mar 11
New
Mar 19
First Quarter
Mar 27
Full

Hourly Weather History & Observations

Time (EST) Temp. Windchill Dew Point Humidity Pressure Visibility Wind Dir Wind Speed Gust Speed Precip Events Conditions
12:35 AM 30.2 °F 24.3 °F 26.6 °F 86% 29.85 in 10.0 mi WNW 5.8 mph - N/A   Overcast
12:55 AM 30.2 °F 23.4 °F 26.6 °F 86% 29.85 in 6.0 mi WNW 6.9 mph - N/A   Overcast
1:15 AM 30.2 °F 23.4 °F 26.6 °F 86% 29.86 in 10.0 mi NW 6.9 mph - N/A   Overcast
1:35 AM 30.2 °F 20.8 °F 26.6 °F 86% 29.86 in 10.0 mi NW 11.5 mph - N/A   Overcast
1:55 AM 30.2 °F 24.3 °F 26.6 °F 86% 29.86 in 10.0 mi NW 5.8 mph - N/A   Overcast
2:15 AM 30.2 °F 24.3 °F 26.6 °F 86% 29.87 in 10.0 mi NW 5.8 mph - N/A   Overcast
2:35 AM 30.2 °F 23.4 °F 26.6 °F 86% 29.86 in 10.0 mi WNW 6.9 mph - N/A   Overcast
2:55 AM 30.2 °F 21.9 °F 26.6 °F 86% 29.86 in 10.0 mi NW 9.2 mph - N/A   Overcast
3:15 AM 30.2 °F 25.4 °F 26.6 °F 86% 29.86 in 10.0 mi WNW 4.6 mph - N/A   Overcast
3:35 AM 30.2 °F 23.4 °F 26.6 °F 86% 29.86 in 10.0 mi NW 6.9 mph - N/A   Overcast
3:55 AM 30.2 °F 24.3 °F 24.8 °F 80% 29.86 in 10.0 mi NW 5.8 mph - N/A   Overcast
4:55 AM 30.2 °F 21.3 °F 24.8 °F 80% 29.86 in 10.0 mi NW 10.4 mph - N/A   Overcast
5:15 AM 30.2 °F 23.4 °F 24.8 °F 80% 29.87 in 10.0 mi NW 6.9 mph - N/A   Overcast
5:35 AM 30.2 °F 23.4 °F 24.8 °F 80% 29.87 in 10.0 mi NW 6.9 mph - N/A   Overcast
6:15 AM 30.2 °F 21.9 °F 24.8 °F 80% 29.87 in 10.0 mi NW 9.2 mph - N/A   Overcast
6:35 AM 28.4 °F 19.7 °F 24.8 °F 86% 29.88 in 10.0 mi NW 9.2 mph - N/A   Overcast
6:55 AM 28.4 °F 21.2 °F 24.8 °F 86% 29.88 in 10.0 mi NNW 6.9 mph - N/A   Overcast
7:15 AM 28.4 °F 23.3 °F 24.8 °F 86% 29.89 in 10.0 mi NNW 4.6 mph - N/A   Overcast
7:35 AM 28.4 °F 22.2 °F 24.8 °F 86% 29.90 in 10.0 mi NNW 5.8 mph - N/A   Overcast
7:55 AM 28.4 °F 22.2 °F 24.8 °F 86% 29.90 in 9.0 mi WNW 5.8 mph - N/A   Overcast
8:15 AM 28.4 °F 23.3 °F 24.8 °F 86% 29.91 in 5.0 mi West 4.6 mph - N/A   Overcast
8:35 AM 30.2 °F 23.4 °F 26.6 °F 86% 29.92 in 4.0 mi NW 6.9 mph - N/A   Overcast
9:15 AM 30.2 °F 24.3 °F 24.8 °F 80% 29.92 in 5.0 mi NW 5.8 mph - N/A   Overcast
9:35 AM 30.2 °F 23.4 °F 24.8 °F 80% 29.92 in 6.0 mi NW 6.9 mph - N/A   Overcast
9:55 AM 30.2 °F 22.6 °F 24.8 °F 80% 29.92 in 4.0 mi WNW 8.1 mph - N/A   Overcast
10:15 AM 30.2 °F 23.4 °F 26.6 °F 86% 29.92 in 9.0 mi NW 6.9 mph - N/A   Overcast
10:35 AM 30.2 °F 21.3 °F 24.8 °F 80% 29.92 in 10.0 mi WNW 10.4 mph - N/A   Overcast
11:15 AM 30.2 °F 21.3 °F 24.8 °F 80% 29.93 in 10.0 mi WNW 10.4 mph - N/A   Overcast
11:35 AM 30.2 °F 22.6 °F 24.8 °F 80% 29.93 in 10.0 mi WNW 8.1 mph - N/A   Overcast
12:15 PM 30.2 °F 22.6 °F 21.2 °F 69% 29.94 in 10.0 mi WNW 8.1 mph - N/A   Overcast
12:35 PM 32.0 °F 24.2 °F 23.0 °F 69% 29.93 in 10.0 mi NW 9.2 mph 16.1 mph N/A   Overcast
12:55 PM 32.0 °F 23.6 °F 23.0 °F 69% 29.93 in 10.0 mi WNW 10.4 mph 16.1 mph N/A   Overcast
1:15 PM 30.2 °F 20.8 °F 23.0 °F 75% 29.93 in 10.0 mi NW 11.5 mph - N/A   Overcast
1:35 PM 30.2 °F 23.4 °F 24.8 °F 80% 29.92 in 10.0 mi NNW 6.9 mph - N/A   Overcast
1:55 PM 30.2 °F 21.3 °F 23.0 °F 75% 29.92 in 10.0 mi NW 10.4 mph - N/A   Overcast
2:35 PM 30.2 °F 20.2 °F 23.0 °F 75% 29.92 in 10.0 mi NNW 12.7 mph - N/A   Overcast
2:55 PM 30.2 °F 21.9 °F 23.0 °F 75% 29.92 in 10.0 mi NW 9.2 mph - N/A   Overcast
3:15 PM 30.2 °F 21.3 °F 21.2 °F 69% 29.92 in 10.0 mi North 10.4 mph - N/A   Overcast
3:35 PM 30.2 °F 22.6 °F 21.2 °F 69% 29.92 in 10.0 mi NW 8.1 mph - N/A   Overcast
3:55 PM 30.2 °F 23.4 °F 21.2 °F 69% 29.92 in 10.0 mi NNW 6.9 mph - N/A   Overcast
4:15 PM 30.2 °F 21.9 °F 21.2 °F 69% 29.93 in 10.0 mi NNW 9.2 mph - N/A   Overcast
4:35 PM 30.2 °F 21.3 °F 21.2 °F 69% 29.93 in 10.0 mi NW 10.4 mph - N/A   Overcast
4:55 PM 30.2 °F 21.9 °F 21.2 °F 69% 29.93 in 10.0 mi North 9.2 mph - N/A   Overcast
5:15 PM 30.2 °F 22.6 °F 21.2 °F 69% 29.94 in 10.0 mi NNW 8.1 mph - N/A   Overcast
5:35 PM 28.4 °F 21.2 °F 21.2 °F 74% 29.94 in 10.0 mi North 6.9 mph - N/A   Overcast
6:15 PM 28.4 °F 20.4 °F 21.2 °F 74% 29.95 in 10.0 mi North 8.1 mph - N/A   Overcast
6:35 PM 28.4 °F 23.3 °F 21.2 °F 74% 29.95 in 10.0 mi North 4.6 mph - N/A   Overcast
6:55 PM 28.4 °F 23.3 °F 21.2 °F 74% 29.96 in 10.0 mi North 4.6 mph - N/A   Overcast
7:15 PM 28.4 °F 20.4 °F 21.2 °F 74% 29.96 in 10.0 mi NNW 8.1 mph - N/A   Overcast
7:35 PM 28.4 °F 22.2 °F 21.2 °F 74% 29.97 in 10.0 mi NNW 5.8 mph - N/A   Overcast
7:55 PM 28.4 °F 22.2 °F 21.2 °F 74% 29.97 in 10.0 mi NNW 5.8 mph - N/A   Overcast
8:15 PM 28.4 °F 24.6 °F 21.2 °F 74% 29.98 in 10.0 mi NW 3.5 mph - N/A   Overcast
8:35 PM 28.4 °F 22.2 °F 21.2 °F 74% 29.97 in 10.0 mi NNW 5.8 mph - N/A   Overcast
9:15 PM 28.4 °F 20.4 °F 21.2 °F 74% 29.98 in 10.0 mi NW 8.1 mph - N/A   Overcast
9:35 PM 28.4 °F 21.2 °F 21.2 °F 74% 29.98 in 10.0 mi NW 6.9 mph - N/A   Overcast
9:55 PM 26.6 °F 18.2 °F 19.4 °F 74% 29.99 in 10.0 mi North 8.1 mph - N/A   Overcast
10:15 PM 26.6 °F 17.5 °F 19.4 °F 74% 29.99 in 10.0 mi NNW 9.2 mph - N/A   Overcast
10:35 PM 26.6 °F 20.0 °F 19.4 °F 74% 29.98 in 10.0 mi NNW 5.8 mph - N/A   Overcast
10:55 PM 26.6 °F 19.1 °F 19.4 °F 74% 29.98 in 10.0 mi NNW 6.9 mph - N/A   Overcast
11:15 PM 26.6 °F 18.2 °F 19.4 °F 74% 29.98 in 10.0 mi NNW 8.1 mph - N/A   Overcast
11:35 PM 26.6 °F 20.0 °F 17.6 °F 69% 29.97 in 10.0 mi NNW 5.8 mph - N/A   Overcast
11:55 PM 26.6 °F 19.1 °F 17.6 °F 69% 29.97 in 10.0 mi NW 6.9 mph - N/A   Overcast